• Processing (Info)

  • MPEC 2014-L24 : 2014 KD91 = 2010 JL2

    The following Minor Planet Electronic Circular may be linked-to from your own Web pages, but must not otherwise be redistributed electronically.

    A form allowing access to any MPEC is at the bottom of this page.


    Read MPEC 2014-L23 Read MPEC 2014-L25


    M.P.E.C. 2014-L24                                Issued 2014 June 5, 02:28 UT
    
         The Minor Planet Electronic Circulars contain information on unusual
             minor planets and routine data on comets.  They are published
       on behalf of Commission 20 of the International Astronomical Union by the
              Minor Planet Center, Smithsonian Astrophysical Observatory,
                              Cambridge, MA 02138, U.S.A.
    
                 Prepared using the Tamkin Foundation Computer Network
    
                                  MPC@CFA.HARVARD.EDU
                URL http://www.minorplanetcenter.net/    ISSN 1523-6714
    
                                 2014 KD91 = 2010 JL2
    
                               Revision to MPEC 2014-L16
    
    Orbital elements:
    2014 KD91 = 2010 JL2                                     Earth MOID = 0.2214 AU
    Id. A. Lowe
    Epoch 2014 May 23.0 TT = JDT 2456800.5                  MPC
    M 106.17650              (2000.0)            P               Q
    n   0.27284466     Peri.  234.09905     +0.27210107     -0.93932424
    a   2.3542852      Node   203.00968     +0.96067910     +0.25270247
    e   0.5438730      Incl.   32.30157     -0.05528727     -0.23197291
    P   3.61           H   16.9           G   0.15           U   5
    Residuals in seconds of arc
    100505 G96  0.4+  0.1+    100506 G96  0.2-  0.1+    140527 291  0.0   0.0
    100505 G96  0.1-  0.1-    100506 G96  0.0   0.0     140527 291  0.0   0.1+
    100505 G96  0.1+  0.3+    100506 G96  0.2+  0.6-    140601 H21  0.3-  0.1+
    100505 G96  0.4-  0.1-    100506 G96  0.1-  0.1+    140601 H21  0.3-  0.1+
    100506 G96  0.0   0.1-    140525 F51  0.1+  0.2-    140601 H21  0.6-  0.1-
    100506 G96  0.1+  0.0     140525 F51  0.1+  0.1+    140603 291  0.4+  0.1-
    100506 G96  0.1-  0.0     140525 F51  0.0   0.0     140603 291  0.2+  0.1-
    100506 G96  0.1+  0.1+    140527 291  0.3-  0.2+    140603 291  0.1-  0.1+
    
    Ephemeris:
    2014 KD91                a,e,i = 2.35, 0.54, 32                  q = 1.0739
    Date    TT    R. A. (2000) Decl.     Delta      r     Elong.  Phase     V
    2014 05 06    15 00 44.4 +01 44 11   2.1432  3.1171   161.7     5.8    21.5
    ...
    2014 05 21    14 46 19.5 +03 47 17   2.2448  3.1709   151.5     8.8    21.8
    ...
    2014 05 29    14 39 46.4 +04 32 34   2.3240  3.1984   143.8    10.8    21.9
    ...
    2014 06 04    14 35 36.0 +04 57 01   2.3934  3.2184   137.9    12.2    22.1
    2014 06 05    14 34 58.3 +05 00 19   2.4057  3.2217   136.9    12.4    22.1
    2014 06 06    14 34 21.9 +05 03 25   2.4182  3.2249   135.9    12.7    22.1
    ...
    2014 06 12    14 31 09.2 +05 17 39   2.4972  3.2443   130.0    13.9    22.2
    ...
    2014 06 20    14 28 02.5 +05 25 53   2.6118  3.2693   122.3    15.2    22.4
    ...
    2014 07 05    14 25 46.6 +05 13 31   2.8476  3.3138   108.5    16.9    22.7
    
    Gareth V. Williams           (C) Copyright 2014 MPC           M.P.E.C. 2014-L24
    

    Read MPEC 2014-L23 Read MPEC 2014-L25


    MPEC number:

    Enter an MPEC number in one of the following forms:

    • 1997-B01 (the full form)
    • J97B01 (the packed version of the full form)
    • B01 (the abbreviated form)